Location: Maiden
(35.5760°N, 81.2120°W)
Time: 02:27:51
(UTC-04:00)

A-11 Canister half - Pass Details

Date: 12 August 2020
Orbit: 1527 x 1682 km, 47.3° (Epoch: 25 September)

Event Time Altitude Azimuth Distance (km) Brightness Sun altitude
Rises 14:01:06 0° 263° (W) 4,909 11.8 67.9°
Reaches altitude 10° 14:04:25 10° 269° (W) 3,932 11.4 67.7°
Maximum altitude 14:14:11 50° 343° (NNW) 2,057 10.2 66.8°
Drops below altitude 10° 14:23:57 10° 57° (ENE) 3,925 11.0 65.8°
Sets 14:27:17 0° 63° (ENE) 4,899 11.4 65.4°
